Tracking 19572 objects as of 23-Feb-2019
HD Live streaming from Space Station
objects crossing your sky now

COSMOS 2013

Track COSMOS 2013 now!
10-day predictions
COSMOS 2013 is classified as:


NORAD ID: 19907
Int'l Code: 1989-025F
Perigee: 1,472.3 km
Apogee: 1,486.6 km
Inclination: 74.0 °
Period: 115.4 minutes
Semi major axis: 7850 km
RCS: 0.7071 m2 (medium)
Launch date: March 24, 1989
Source: Commonwealth of Independent States (former USSR) (CIS)
Launch site: PLESETSK MISSILE AND SPACE COMPLEX (PKMTR)
aabbcc
Your satellite tracking list
Your tracking list is empty




NASA's NSSDC Master Catalog

Two Line Element Set (TLE):
1 19907U 89025F   19053.67777008 +.00000007 +00000-0 +15194-3 0  9990
2 19907 074.0112 308.8629 0009073 048.1118 338.8692 12.48134640363117
Source of the keplerian elements: AFSPC